Change the Weather History Date:

Monday, October 14, 2013

  Actual Average Record
Temperature  
Mean Temperature 78 °F 71 °F  
Max Temperature 84 °F 81 °F 91 °F (1954)
Min Temperature 71 °F 61 °F 45 °F (1969)
Degree Days  
Heating Degree Days 0 1  
Month to date heating degree days 0 4  
Since 1 July heating degree days 0 5  
Cooling Degree Days 13 7  
Month to date cooling degree days 149 116  
Year to date cooling degree days 2873 2702  
Growing Degree Days 28 (Base 50)    
Moisture  
Dew Point 71 °F    
Average Humidity 83    
Maximum Humidity 100    
Minimum Humidity 65    
Precipitation  
Precipitation T in 0.18 in 9.26 in (1902)
Month to date precipitation 2.74 2.47  
Year to date precipitation 46.09 47.67  
Snow  
Snow 0.00 in 0.00 in 0.00 in ()
Month to date snowfall 0.0 0.0  
Since 1 July snowfall 0.0 0.0  
Since 1 September snowfall 0.0 0.0  
Snow Depth 0.00 in    
Sea Level Pressure  
Sea Level Pressure 30.05 in    
Wind  
Wind Speed 5 mph (ESE)    
Max Wind Speed 12 mph    
Max Gust Speed 14 mph    
Visibility 9 miles    
Events Rain    
T = Trace of Precipitation, MM = Missing Value Source: NWS Daily Summary

Daily Weather History Graph

Daily Weather History Graph

Search for Another Location

Airport or City:

Trip Planner

Search our weather history database for the weather conditions in past years. The results will help you decide how hot, cold, wet, or windy it might be!

Date:

Astronomy

Oct. 14, 2013 Rise Set
Actual Time 7:17 AM CDT 6:46 PM CDT
Civil Twilight 6:53 AM CDT 7:10 PM CDT
Nautical Twilight 6:25 AM CDT 7:37 PM CDT
Astronomical Twilight 5:57 AM CDT 8:05 PM CDT
Moon 3:59 PM CDT (10/14) 2:53 AM CDT (10/14)
Length of Visible Light 12h 16m
Length of Day
11h 28m
Waxing Gibbous, 79% of the Moon is Illuminated
Oct 14
Waxing Gibbous
Oct 18
Full
Oct 26
Last Quarter
Nov 3
New
Nov 9
First Quarter

Hourly Weather History & Observations

Time (CDT) Temp. Heat Index Dew Point Humidity Pressure Visibility Wind Dir Wind Speed Gust Speed Precip Events Conditions
12:53 AM 72.0 °F - 71.1 °F 97% 30.09 in 7.0 mi Calm Calm - N/A   Clear
1:03 AM 73.4 °F - 71.6 °F 94% 30.09 in 1.8 mi Calm Calm - N/A   Clear
1:15 AM 71.6 °F - 71.6 °F 100% 30.09 in 3.0 mi NNE 4.6 mph - N/A   Clear
1:53 AM 73.0 °F - 71.1 °F 93% 30.09 in 10.0 mi NE 3.5 mph - N/A   Clear
2:53 AM 73.0 °F - 71.1 °F 93% 30.09 in 10.0 mi NNE 3.5 mph - N/A   Clear
3:53 AM 71.1 °F - 69.1 °F 93% 30.08 in 7.0 mi North 4.6 mph - N/A   Clear
4:53 AM 73.0 °F - 70.0 °F 90% 30.06 in 9.0 mi NE 8.1 mph - N/A   Clear
5:53 AM 73.0 °F - 71.1 °F 93% 30.05 in 9.0 mi East 5.8 mph - N/A   Clear
6:53 AM 73.0 °F - 70.0 °F 90% 30.07 in 10.0 mi ENE 8.1 mph - N/A   Clear
7:53 AM 73.9 °F - 71.1 °F 91% 30.09 in 8.0 mi ENE 6.9 mph - N/A   Partly Cloudy
8:53 AM 75.0 °F - 72.0 °F 90% 30.11 in 8.0 mi ENE 6.9 mph - N/A   Partly Cloudy
9:53 AM 78.1 °F - 72.0 °F 81% 30.11 in 10.0 mi ESE 4.6 mph - N/A   Partly Cloudy
10:53 AM 80.1 °F 83.8 °F 72.0 °F 76% 30.09 in 10.0 mi SE 5.8 mph - N/A   Partly Cloudy
11:53 AM 81.0 °F 84.4 °F 70.0 °F 69% 30.09 in 10.0 mi East 5.8 mph - N/A   Partly Cloudy
12:53 PM 81.0 °F 84.9 °F 71.1 °F 72% 30.06 in 10.0 mi SE 6.9 mph - N/A   Scattered Clouds
1:53 PM 82.9 °F 87.5 °F 71.1 °F 67% 30.02 in 10.0 mi East 8.1 mph - N/A   Mostly Cloudy
1:56 PM 84.2 °F 89.6 °F 71.6 °F 66% 30.02 in 10.0 mi ESE 6.9 mph - N/A   Mostly Cloudy
2:53 PM 82.0 °F 85.5 °F 69.1 °F 65% 30.00 in 10.0 mi ESE 6.9 mph - N/A   Overcast
3:53 PM 79.0 °F - 72.0 °F 79% 30.00 in 9.0 mi SE 3.5 mph - 0.00 in Rain Light Rain
4:53 PM 81.0 °F 84.9 °F 71.1 °F 72% 29.99 in 10.0 mi SE 5.8 mph - 0.00 in   Overcast
5:53 PM 80.1 °F 83.6 °F 71.1 °F 74% 29.99 in 10.0 mi South 6.9 mph - N/A   Clear
6:53 PM 77.0 °F - 71.1 °F 82% 30.00 in 10.0 mi South 5.8 mph - N/A   Clear
7:53 PM 75.0 °F - 71.1 °F 87% 29.99 in 10.0 mi SSE 6.9 mph - N/A   Clear
8:53 PM 73.9 °F - 70.0 °F 87% 30.01 in 10.0 mi Calm Calm - 0.00 in   Clear
9:53 PM 73.0 °F - 70.0 °F 90% 30.02 in 10.0 mi Calm Calm - 0.00 in   Clear
10:53 PM 72.0 °F - 69.1 °F 91% 30.03 in 9.0 mi South 3.5 mph - 0.00 in   Clear
11:53 PM 72.0 °F - 69.1 °F 91% 30.00 in 10.0 mi SE 3.5 mph - 0.00 in   Clear